Waarnemingen

Advertentie
Mijn weer
Le Talut, Frankrijk (7207): temperatuur & dauwpunt: 12.12.2017 09:00:00 - 18.12.2017 09:00:00 (CET)Le Talut, Frankrijk (7207): windsnelheid & windstoten: 12.12.2017 09:00:00 - 18.12.2017 09:00:00 (CET)Le Talut, Frankrijk (7207): windrichting: 12.12.2017 09:00:00 - 18.12.2017 09:00:00 (CET)Le Talut, Frankrijk (7207): luchtdruk: 12.12.2017 09:00:00 - 18.12.2017 09:00:00 (CET)Le Talut, Frankrijk (7207): zicht: 12.12.2017 09:00:00 - 18.12.2017 09:00:00 (CET)Le Talut, Frankrijk (7207): neerslag: 12.12.2017 09:00:00 - 18.12.2017 09:00:00 (CET)
Datum & Tijd tt [°C] td [°C] ff [km/u] ff [kn] fx [km/u] fx [kn] dd ppp [hPa] vv [km] rr [mm]
18.12.2017 09:00:00 11,5 11,3 26 14 48 26 NW 1027,3 - 0,0
18.12.2017 08:00:00 11,9 11,7 24 13 53 28 WNW 1026,7 - 0,0
18.12.2017 07:00:00 11,9 11,7 34 19 56 31 W 1026,6 - 0,0
18.12.2017 06:00:00 11,8 11,5 39 21 71 39 W 1027,2 - 0,0
18.12.2017 05:00:00 11,6 11,4 48 26 71 38 W 1026,1 - 0,0
18.12.2017 04:00:00 11,5 11,3 32 18 51 28 W 1027,9 - 0,4
18.12.2017 03:00:00 11,3 11,0 27 15 49 27 W 1028,8 - 0,0
18.12.2017 02:00:00 11,1 10,6 31 17 61 33 W 1029,3 - 0,0
18.12.2017 01:00:00 11,3 9,9 39 21 58 31 W 1029,8 - 0,0
18.12.2017 00:00:00 11,9 9,5 32 17 59 32 W 1029,7 - 0,0
17.12.2017 23:00:00 11,7 9,1 36 20 56 31 W 1029,1 - 0,0
17.12.2017 22:00:00 11,6 8,8 34 18 51 27 W 1029,4 - 0,0
17.12.2017 21:00:00 11,6 8,8 29 16 51 27 W 1029,4 - 0,0
17.12.2017 20:00:00 11,4 9,1 25 13 37 20 WZW 1029,8 - 0,0
17.12.2017 19:00:00 11,4 8,8 24 13 48 26 W 1029,8 16 0,0
17.12.2017 18:00:00 11,2 7,9 28 15 42 23 W 1029,4 - 0,0
17.12.2017 17:00:00 11,2 8,9 19 11 39 21 W 1029,5 - 0,0
17.12.2017 16:00:00 10,7 8,5 25 14 38 21 W 1029,7 16 0,0
17.12.2017 15:00:00 10,3 7,7 15 8 44 24 W 1029,4 - 0,0
17.12.2017 14:00:00 11,1 8,3 28 15 44 24 W 1029,3 - 0,0
17.12.2017 13:00:00 11,2 6,1 13 7 29 16 W 1029,9 18 0,0
17.12.2017 12:00:00 11,6 7,3 11 6 22 12 WNW 1030,2 - 0,0
17.12.2017 11:00:00 11,1 7,0 14 7 26 14 NNW 1030,3 - 0,0
17.12.2017 10:00:00 10,2 6,3 18 10 31 17 NW 1029,9 18 0,0
17.12.2017 09:00:00 9,8 6,1 21 11 39 21 NW 1029,3 - 0,0
17.12.2017 08:00:00 10,3 6,1 25 13 45 24 NW 1028,9 - 0,0
17.12.2017 07:00:00 10,4 6,0 27 15 45 24 NW 1028,7 20 0,0
17.12.2017 06:00:00 10,2 5,4 26 14 49 27 NW 1028,2 - 0,0
17.12.2017 05:00:00 10,1 5,7 24 13 43 23 NW 1028,3 - 0,0
17.12.2017 04:00:00 10,1 5,7 26 14 43 23 NW 1028,4 - 0,0
17.12.2017 03:00:00 10,2 6,0 19 11 46 25 WNW 1028,3 - 0,0
17.12.2017 02:00:00 9,9 5,5 19 11 42 23 WNW 1028,3 - 0,0
17.12.2017 01:00:00 9,7 4,9 27 14 49 26 WNW 1028,5 - 0,0
17.12.2017 00:00:00 9,4 4,2 16 9 36 19 WNW 1028,2 - 0,0
16.12.2017 23:00:00 9,1 3,1 19 10 37 20 WNW 1028,3 - 0,0
16.12.2017 22:00:00 8,7 2,5 16 9 30 16 NW 1028,3 - 0,0
16.12.2017 21:00:00 7,2 2,5 14 7 22 12 NNW 1027,9 - 0,0
16.12.2017 20:00:00 6,2 1,3 13 7 19 11 NNW 1027,8 - 0,0
16.12.2017 19:00:00 6,2 1,3 13 7 24 13 N 1027,3 20 0,0
16.12.2017 18:00:00 6,5 1,6 15 8 24 13 N 1026,4 - 0,0
16.12.2017 17:00:00 7,6 1,9 15 8 29 16 N 1025,4 - 0,0
16.12.2017 16:00:00 8,8 2,6 19 11 38 20 NNW 1024,9 22 0,0
16.12.2017 15:00:00 9,0 3,0 22 12 34 18 NNW 1024,4 - 0,0
16.12.2017 14:00:00 8,9 3,1 19 11 35 19 NW 1024,1 - 0,0
16.12.2017 13:00:00 9,4 3,6 18 10 32 18 NNW 1024,1 15 0,0
16.12.2017 12:00:00 8,7 3,7 20 11 39 21 NNW 1023,9 - 0,0
16.12.2017 11:00:00 7,9 3,7 14 8 27 15 N 1023,4 - 0,0
16.12.2017 10:00:00 6,6 3,2 14 7 34 18 N 1022,2 - 0,0
16.12.2017 09:00:00 5,6 2,4 18 10 29 16 NNW 1021,1 - 0,0
16.12.2017 08:00:00 5,6 1,7 16 9 27 15 N 1020,2 - 0,0
16.12.2017 07:00:00 6,1 1,8 20 11 32 17 N 1019,3 15 0,0
16.12.2017 06:00:00 6,5 2,2 22 12 35 19 N 1018,6 - 0,0
16.12.2017 05:00:00 6,7 2,9 21 11 41 22 NNW 1018,1 - 0,0
16.12.2017 04:00:00 6,7 3,3 20 11 31 17 NNW 1017,6 - 0,0
16.12.2017 03:00:00 7,1 3,7 22 12 35 19 NNW 1016,8 - 0,0
16.12.2017 02:00:00 6,9 3,1 18 10 31 17 N 1015,9 - 0,0
16.12.2017 01:00:00 7,0 3,6 19 10 32 17 N 1015,5 - 0,0
16.12.2017 00:00:00 7,0 4,1 19 10 35 19 NNW 1014,7 - 0,0
15.12.2017 23:00:00 7,1 4,1 20 11 35 19 NNW 1013,9 - 0,0
15.12.2017 22:00:00 7,6 4,4 23 12 45 25 NNW 1013,0 - 0,0
15.12.2017 21:00:00 8,1 4,7 29 16 49 26 NNW 1011,9 - 0,0
15.12.2017 20:00:00 8,4 4,8 28 15 56 30 NNW 1010,9 - 0,0
15.12.2017 19:00:00 9,0 4,8 31 17 49 26 NW 1009,8 - 0,0
15.12.2017 18:00:00 8,5 3,9 25 13 46 25 NNW 1009,1 - 0,0
15.12.2017 17:00:00 8,7 3,3 31 17 51 28 NNW 1008,2 - 0,0
15.12.2017 16:00:00 9,3 4,3 34 18 66 36 NNW 1007,3 18 0,0
15.12.2017 15:00:00 10,0 3,9 40 22 65 35 NNW 1006,3 - 0,0
15.12.2017 14:00:00 10,1 4,9 44 24 68 37 NW 1005,6 - 0,0
15.12.2017 13:00:00 10,2 5,2 41 22 79 43 NW 1005,2 18 0,0
15.12.2017 12:00:00 10,4 5,2 39 21 69 37 NW 1005,1 - 0,0
15.12.2017 11:00:00 10,0 5,2 43 23 74 40 NW 1004,7 - 0,0
15.12.2017 10:00:00 9,4 5,9 37 20 63 34 NW 1003,6 20 0,0
15.12.2017 09:00:00 8,4 6,4 21 12 60 32 WNW 1002,9 - 0,2
15.12.2017 08:00:00 8,8 6,2 29 16 74 40 WNW 1002,7 - 0,0
15.12.2017 07:00:00 9,6 5,2 35 19 69 37 W 1002,5 - 0,0
15.12.2017 06:00:00 9,0 5,6 31 17 81 44 W 1003,0 - 0,0
15.12.2017 05:00:00 9,2 5,0 38 21 73 40 W 1002,9 - 0,6
15.12.2017 04:00:00 9,6 5,4 33 18 82 44 WNW 1003,2 - 0,0
15.12.2017 03:00:00 9,8 5,6 47 26 77 41 W 1002,8 - 0,0
15.12.2017 02:00:00 9,9 4,5 37 20 85 46 WNW 1002,7 - 0,0
15.12.2017 01:00:00 9,6 3,6 32 18 75 40 WNW 1002,6 - 0,0
15.12.2017 00:00:00 9,1 5,1 36 19 98 53 WNW 1002,3 - 0,0
14.12.2017 23:00:00 10,0 4,6 53 29 104 56 W 1001,8 - 0,0
14.12.2017 22:00:00 9,7 3,9 40 21 84 45 W 1001,9 - 0,0
14.12.2017 21:00:00 9,4 3,6 45 24 100 54 W 1001,6 - 0,0
14.12.2017 20:00:00 9,5 3,5 46 25 95 51 W 1001,0 - 0,2
14.12.2017 19:00:00 9,5 5,9 56 30 91 49 W 1000,7 6 0,0
14.12.2017 18:00:00 8,9 6,7 42 23 79 43 W 1001,2 - 0,4
14.12.2017 17:00:00 7,2 6,1 45 25 87 47 NW 1001,4 - 1,1
14.12.2017 16:00:00 9,5 8,6 48 26 136 74 W 1001,2 6 2,4
14.12.2017 15:00:00 10,7 7,0 58 32 96 52 W 1001,6 - 0,0
14.12.2017 14:00:00 10,5 7,0 57 31 112 60 W 1002,7 - 0,2
14.12.2017 13:00:00 9,8 7,0 49 26 95 51 W 1004,2 6 1,2
14.12.2017 12:00:00 11,3 6,8 56 31 86 46 W 1004,8 - 0,2
14.12.2017 11:00:00 10,9 7,0 45 25 98 53 W 1005,7 - 0,0
14.12.2017 10:00:00 11,3 7,0 49 26 94 51 W 1006,2 6 0,0
14.12.2017 09:00:00 10,0 7,1 56 31 93 50 W 1006,9 - 0,4
14.12.2017 08:00:00 9,6 7,2 51 28 93 50 W 1007,2 - 0,0
14.12.2017 07:00:00 11,0 5,7 48 26 79 43 W 1007,8 6 0,0
14.12.2017 06:00:00 10,6 5,6 52 28 82 44 W 1008,2 - 0,2
14.12.2017 05:00:00 9,7 5,9 32 17 92 50 W 1009,2 - 0,0
14.12.2017 04:00:00 10,4 5,4 49 27 79 43 W 1009,6 - 0,0
14.12.2017 03:00:00 10,7 5,0 34 18 73 40 W 1009,5 - 0,0
14.12.2017 02:00:00 10,6 5,6 37 20 82 45 W 1009,1 - 0,0
14.12.2017 01:00:00 10,4 5,8 35 19 81 44 WNW 1009,3 - 0,2
14.12.2017 00:00:00 10,4 7,8 38 20 119 64 WNW 1008,8 - 0,2
13.12.2017 23:00:00 11,7 7,0 68 37 103 56 W 1007,7 - 0,2
13.12.2017 22:00:00 11,8 6,9 59 32 104 56 W 1007,5 - 0,0
13.12.2017 21:00:00 11,8 6,1 62 33 104 56 W 1007,0 - 0,0
13.12.2017 20:00:00 11,8 7,9 46 25 89 48 W 1006,8 - 0,0
13.12.2017 19:00:00 11,8 8,8 50 27 102 55 W 1006,1 - 0,0
13.12.2017 18:00:00 12,0 9,6 38 20 79 43 W 1005,7 - 0,0
13.12.2017 17:00:00 12,4 10,6 43 23 96 52 W 1004,7 - 0,0
13.12.2017 16:00:00 12,9 12,3 45 24 83 45 W 1002,6 6 0,0
13.12.2017 15:00:00 12,8 12,5 44 24 91 49 WZW 1002,6 - 0,2
13.12.2017 14:00:00 11,9 11,4 50 27 77 42 ZW 1004,5 - 0,6
13.12.2017 13:00:00 11,4 10,5 49 26 77 42 ZW 1007,0 5 0,2
13.12.2017 12:00:00 12,0 9,7 45 25 78 42 ZW 1009,1 - 0,2
13.12.2017 11:00:00 12,0 9,2 36 20 56 30 ZW 1010,4 - 0,0
13.12.2017 10:00:00 11,8 8,6 38 21 59 32 WZW 1011,0 15 0,0
13.12.2017 09:00:00 11,9 8,9 37 20 56 30 W 1011,3 - 0,0
13.12.2017 08:00:00 10,6 8,7 29 15 55 30 W 1011,7 - 0,0
13.12.2017 07:00:00 11,2 7,5 30 16 58 31 W 1011,5 - 0,0
13.12.2017 06:00:00 11,3 8,5 27 15 51 27 W 1011,2 - 0,0
13.12.2017 05:00:00 10,9 9,3 19 10 72 39 WNW 1010,8 - 0,0
13.12.2017 04:00:00 12,1 11,8 38 20 64 35 WZW 1010,4 - 0,8
13.12.2017 03:00:00 11,6 11,3 44 24 72 39 ZZW 1010,9 - 0,2
13.12.2017 02:00:00 11,2 10,3 51 28 82 45 ZW 1011,8 - 0,4
13.12.2017 01:00:00 11,2 9,3 44 24 69 38 ZW 1012,8 - 0,0
13.12.2017 00:00:00 11,5 8,2 34 18 64 35 ZW 1013,6 - 0,0
12.12.2017 23:00:00 11,8 6,7 35 19 54 29 ZW 1014,2 - 0,0
12.12.2017 22:00:00 11,3 7,2 34 19 53 29 ZW 1014,9 - 0,0
12.12.2017 21:00:00 11,1 5,8 34 18 49 26 ZW 1015,2 - 0,0
12.12.2017 20:00:00 10,9 4,8 29 16 46 25 WZW 1015,5 - 0,0
12.12.2017 19:00:00 10,7 4,2 30 16 46 25 WZW 1014,7 15 0,0
12.12.2017 18:00:00 10,4 3,7 26 14 45 24 WZW 1014,5 - 0,0
12.12.2017 17:00:00 9,3 4,7 9 5 37 20 W 1015,2 - 0,0
12.12.2017 16:00:00 8,7 4,7 37 20 65 35 W 1014,9 15 0,0
12.12.2017 15:00:00 10,1 3,4 21 11 30 16 W 1014,5 - 0,0
12.12.2017 14:00:00 10,0 4,4 17 9 34 19 ZW 1014,2 - 0,0
12.12.2017 13:00:00 10,6 4,5 13 7 26 14 W 1014,2 - 0,0
12.12.2017 12:00:00 10,0 4,1 14 8 24 13 W 1014,6 - 0,0
12.12.2017 11:00:00 9,5 3,9 10 5 28 15 NW 1013,7 - 0,0
12.12.2017 10:00:00 8,6 4,0 14 7 28 15 NW 1013,1 18 0,0
12.12.2017 09:00:00 7,3 3,7 14 8 27 15 NNW 1012,2 - 0,0

tt = temperatuur
td = dauwpunt
ff = windsnelheid
fx = windstoten
dd = windrichting
ppp = luchtdruk
vv = zicht
rr = neerslag

Weerstations in de omgeving